Wind_Speed
32 38 41 44 46 52 55 55 60 66 73 73 75 76 76 80 83 87 90 91 94 94 97 100 101 103 107 110 111 112 113 113 112 111 106 99 89 82 76 72 69 66 64
30 33 37 43 51 52 53 59 66 72 72 74 77 79 81 82 86 89 92 94 96 99 100 103 103 108 111 112 114 114 114 114 111 106 100 92 86 80 75 70 67 62 59
36 39 43 49 50 55 61 66 70 71 74 77 81 83 86 88 90 92 95 96 98 102 105 103 108 112 115 116 116 116 117 113 107 99 93 87 81 75 71 67 63 59 54
40 45 49 53 57 62 65 67 69 72 76 79 83 86 87 90 94 95 97 99 101 105 104 108 113 117 119 118 118 118 116 109 103 95 88 81 77 73 68 63 60 53 52
48 51 54 59 62 65 68 71 75 77 80 84 87 87 90 93 97 99 99 102 106 107 109 113 117 121 121 120 118 116 111 106 98 91 84 77 74 70 64 59 55 51 49
52 55 59 62 66 69 72 75 78 81 83 86 88 90 93 96 100 101 104 105 110 109 113 117 121 123 122 120 116 113 107 100 92 86 78 74 71 66 61 57 53 50 49
56 60 64 67 70 73 76 79 81 83 85 87 90 94 97 100 101 103 106 109 110 112 116 121 123 123 120 116 113 108 101 93 85 81 74 72 67 63 60 57 52 46 45
60 64 68 71 74 76 79 82 81 85 87 89 92 95 98 101 102 106 109 111 112 116 120 124 123 122 118 114 109 103 95 86 81 76 71 68 64 61 58 55 52 46 42
65 69 71 73 76 79 82 82 85 88 90 92 95 97 101 105 107 110 111 113 116 119 123 124 122 119 114 110 103 97 89 82 79 73 68 64 61 58 55 54 51 47 43
68 70 72 76 80 81 82 85 88 90 92 95 98 101 104 106 109 111 114 115 119 121 124 124 121 117 112 106 97 91 85 78 75 69 64 60 59 56 54 52 51 47 42
69 73 77 79 80 83 85 87 90 92 96 98 101 105 106 108 110 113 116 119 121 121 122 121 117 113 107 99 91 85 80 75 71 65 60 57 56 54 53 51 48 47 43
74 76 78 80 82 85 88 92 94 97 100 102 103 104 108 111 114 116 120 122 121 119 117 115 111 108 100 91 84 80 75 70 65 61 57 55 54 52 51 48 45 43 42
75 77 80 83 87 90 93 95 98 98 99 101 103 104 108 111 117 123 123 122 120 115 112 109 106 99 91 85 80 74 69 65 63 59 55 53 52 51 49 45 42 40 38
78 80 83 86 89 91 93 94 96 99 101 104 106 108 108 113 119 119 119 119 117 114 109 102 96 91 86 82 77 70 65 63 60 57 54 52 49 47 46 43 40 38 35
78 82 87 89 91 93 94 96 99 102 105 107 107 109 112 114 114 113 112 111 113 111 103 97 90 83 79 76 72 66 63 61 58 56 53 50 47 45 44 42 38 36 33
85 88 90 92 93 94 97 101 104 105 106 109 112 114 115 113 111 111 110 109 106 100 94 89 85 79 74 69 66 64 62 59 57 54 51 48 45 43 41 39 36 34 31
93 93 95 97 97 97 97 98 100 105 110 114 116 115 113 113 112 110 107 104 100 94 89 84 79 75 70 65 63 62 60 57 54 52 48 44 42 40 39 36 33 32 29
95 95 96 99 97 97 99 100 103 106 111 114 113 112 112 110 110 107 100 94 89 86 82 78 74 70 68 64 62 59 57 55 51 48 44 42 39 37 36 33 31 29 26
94 96 100 102 100 101 103 105 108 111 110 109 107 107 108 109 107 100 93 86 81 79 75 73 70 68 65 62 59 56 53 50 47 44 41 38 36 34 34 31 29 27 25
97 101 104 102 102 105 107 109 111 110 110 105 106 103 103 102 98 93 87 82 77 72 70 69 67 64 62 58 54 52 48 45 42 40 37 35 34 33 31 29 27 25 23
100 102 103 104 106 107 110 110 110 111 108 107 102 101 97 91 87 83 80 77 73 70 68 66 65 61 57 53 48 48 44 41 39 37 36 34 31 31 29 28 26 24 22
104 104 106 107 109 110 111 111 111 110 107 103 100 97 91 85 80 76 74 72 68 65 63 63 61 58 53 48 44 44 42 39 37 35 34 31 29 29 27 26 24 23 22
106 107 108 110 111 112 113 111 111 107 103 99 94 89 84 80 76 73 71 68 65 62 59 57 56 53 50 45 43 41 39 36 34 33 32 29 28 27 26 25 23 22 21
108 109 111 112 114 113 113 111 106 103 98 92 87 83 80 75 73 70 68 66 63 59 56 53 49 48 47 42 39 39 37 34 31 31 30 27 26 26 25 24 23 21 20
111 112 113 113 113 113 109 107 102 97 93 87 83 80 76 72 69 68 65 62 59 56 53 49 46 45 43 41 36 36 33 33 29 29 28 26 25 24 24 23 22 20 19
112 113 113 113 111 109 105 100 95 91 87 83 80 76 72 69 67 64 61 57 55 52 49 46 43 42 40 38 35 33 31 30 27 27 26 25 22 22 23 23 21 20 20
Wind_Direction
252 259 269 274 277 280 284 285 291 294 297 299 302 304 305 307 308 308 309 311 310 309 309 310 311 311 310 310 312 312 313 313 313 313 310 307 305 305 303 300 298 296 293
271 270 271 274 278 282 284 284 288 294 298 302 303 304 305 307 307 307 309 309 309 310 312 312 312 313 312 313 314 314 314 314 314 314 311 309 309 308 306 304 301 299 295
269 272 271 272 280 281 283 287 292 298 302 303 305 305 305 306 306 307 309 310 312 313 312 312 312 314 315 315 314 315 315 315 315 315 313 311 310 308 307 305 302 300 296
267 269 273 275 279 283 287 291 297 299 301 303 304 304 304 305 306 309 310 311 312 313 313 314 315 316 315 315 315 315 315 316 317 315 312 312 310 309 308 306 304 302 299
266 270 274 277 282 288 296 301 300 300 302 302 303 304 305 307 308 310 311 313 314 314 314 316 316 316 315 316 315 315 316 318 317 314 312 312 310 309 307 305 304 304 299
272 277 282 288 292 296 298 297 298 300 302 303 305 306 307 308 310 311 312 313 314 314 315 316 315 315 315 314 316 317 318 317 315 312 312 311 309 308 306 305 304 304 302
282 285 288 290 294 295 296 297 299 301 302 304 306 308 308 309 310 311 312 313 314 314 314 315 315 314 314 316 317 317 317 315 314 312 313 310 309 307 305 304 304 304 302
282 285 288 291 294 294 295 296 299 301 303 305 306 307 308 308 310 311 311 313 313 314 314 313 314 314 315 317 317 317 315 314 313 312 312 309 308 307 306 305 306 306 303
283 286 290 291 292 294 296 299 301 303 305 305 306 308 309 309 310 310 311 313 313 313 312 313 314 314 315 315 316 316 314 315 313 312 311 308 306 306 305 306 306 306 303
287 289 291 292 294 297 298 300 302 303 304 306 307 307 308 309 309 310 312 312 312 312 312 313 313 314 315 315 316 315 313 314 311 311 308 307 305 305 304 305 305 305 303
290 292 293 296 297 298 299 301 303 304 305 306 307 308 309 309 310 311 311 311 311 311 312 311 313 314 314 314 315 312 312 313 310 309 308 306 304 303 303 303 303 303 301
293 295 296 297 298 299 301 303 303 305 306 307 308 309 309 310 311 310 310 310 310 311 311 313 314 313 313 312 313 312 312 310 309 308 307 305 304 303 302 302 301 300 299
295 297 298 299 301 302 303 304 305 306 306 307 307 308 310 310 310 310 310 309 310 311 313 314 313 312 312 312 312 311 311 309 308 308 307 305 304 302 301 301 300 299 297
300 303 304 304 305 304 304 305 305 305 306 307 308 309 309 308 308 308 309 310 311 313 313 313 312 312 313 312 311 311 310 308 308 307 306 305 303 302 301 300 299 298 295
303 304 304 304 303 303 303 304 305 306 306 306 307 307 307 307 307 307 309 311 312 312 312 313 312 311 311 310 309 310 309 309 308 307 306 305 304 302 301 299 298 297 294
303 305 305 305 304 303 303 305 306 306 307 308 308 308 309 308 309 310 312 313 313 312 312 311 310 311 310 309 309 310 309 309 308 306 305 304 302 301 300 297 296 295 295
303 304 306 306 306 305 305 305 306 307 309 310 310 310 310 310 311 312 313 314 312 311 310 310 310 310 310 309 309 309 308 307 306 304 303 302 301 300 298 296 294 293 294
302 303 305 306 304 305 305 305 306 308 311 310 309 310 310 310 312 312 312 312 311 309 309 309 309 310 309 310 309 308 307 305 304 302 302 300 299 297 296 295 292 291 291
302 303 304 305 303 304 305 307 309 310 309 310 310 311 312 313 313 313 313 311 310 309 309 309 309 309 309 309 308 307 305 303 303 301 300 297 297 295 293 293 290 289 288
303 304 304 305 305 306 308 309 310 310 311 311 311 313 313 314 313 313 312 312 311 311 310 309 309 309 309 309 308 305 303 302 301 300 297 296 296 293 291 291 288 286 286
303 305 306 307 307 308 308 309 310 311 312 313 313 315 314 314 313 312 311 311 311 311 310 310 309 309 309 309 307 303 303 302 300 298 296 295 294 291 290 288 286 284 284
307 307 307 308 307 308 309 310 311 312 313 314 316 314 314 314 313 312 311 311 311 311 310 310 309 309 309 309 307 302 302 300 298 296 294 294 291 289 288 285 284 280 280
306 307 306 306 308 308 310 311 312 312 313 314 315 314 314 314 314 313 312 312 311 310 310 310 309 308 308 308 305 302 300 299 297 294 293 292 289 287 284 280 280 276 276
306 305 307 308 308 309 310 311 311 313 314 315 315 314 314 314 314 313 312 312 311 310 311 310 308 307 306 306 303 301 299 298 296 293 292 291 288 284 281 276 275 274 272
305 306 306 307 308 309 310 311 312 312 314 315 314 314 315 315 314 313 312 311 311 311 311 310 308 307 305 305 303 301 300 297 295 292 290 289 287 283 278 272 271 271 269
305 306 307 308 308 309 310 311 311 313 314 314 314 314 314 314 313 312 312 311 311 311 310 310 308 307 305 304 304 301 301 297 294 288 286 286 286 280 276 270 267 267 266
Height
10573 10570 10567 10565 10560 10555 10549 10542 10535 10529 10522 10513 10503 10495 10486 10476 10466 10454 10443 10433 10422 10411 10397 10381 10366 10351 10336 10320 10301 10283 10265 10247 10231 10211 10194 10172 10159 10149 10140 10128 10120 10113 10105
10561 10559 10557 10553 10547 10543 10537 10532 10524 10516 10507 10497 10488 10480 10470 10462 10452 10439 10427 10415 10402 10387 10373 10358 10342 10326 10308 10292 10273 10256 10238 10220 10204 10188 10162 10146 10133 10121 10112 10104 10096 10091 10085
10549 10547 10544 10539 10535 10530 10525 10519 10511 10500 10491 10482 10472 10464 10453 10443 10432 10420 10408 10395 10380 10363 10349 10334 10319 10301 10281 10264 10246 10228 10211 10194 10178 10161 10140 10125 10112 10101 10092 10084 10076 10071 10067
10538 10534 10530 10527 10522 10516 10511 10504 10495 10486 10478 10468 10458 10447 10437 10426 10411 10400 10386 10371 10356 10341 10324 10309 10291 10273 10255 10238 10220 10202 10185 10168 10150 10134 10118 10105 10092 10082 10073 10066 10056 10054 10046
10527 10524 10519 10514 10509 10501 10492 10484 10476 10469 10461 10451 10440 10430 10418 10404 10389 10377 10364 10350 10333 10316 10300 10283 10265 10248 10229 10212 10196 10179 10160 10144 10127 10113 10097 10086 10074 10064 10056 10049 10042 10036 10031
10514 10510 10505 10499 10491 10484 10477 10469 10461 10452 10444 10432 10420 10408 10395 10382 10368 10354 10341 10327 10310 10293 10275 10260 10242 10222 10206 10189 10173 10154 10136 10120 10107 10092 10079 10068 10056 10048 10039 10033 10027 10021 10014
10498 10493 10488 10482 10476 10469 10461 10452 10444 10435 10425 10413 10401 10386 10373 10361 10349 10335 10320 10305 10288 10270 10254 10237 10217 10199 10181 10165 10149 10131 10115 10100 10088 10071 10061 10049 10039 10031 10024 10016 10011 10008 10002
10486 10480 10474 10467 10461 10454 10445 10436 10428 10416 10406 10394 10382 10370 10356 10340 10328 10313 10298 10283 10267 10249 10230 10211 10193 10174 10156 10140 10126 10109 10094 10080 10069 10055 10044 10032 10023 10016 10007 10000 9994 9991 9989
10471 10465 10460 10453 10445 10437 10428 10419 10407 10396 10385 10374 10361 10348 10334 10317 10304 10290 10275 10260 10243 10226 10206 10184 10168 10151 10132 10120 10105 10088 10072 10060 10047 10037 10027 10017 10008 10001 9993 9985 9980 9976 9973
10456 10450 10443 10435 10427 10419 10409 10399 10388 10376 10364 10352 10339 10327 10313 10298 10281 10265 10248 10235 10219 10201 10179 10157 10141 10125 10108 10093 10082 10067 10052 10043 10030 10021 10011 10002 9993 9986 9979 9972 9965 9961 9959
10440 10433 10425 10417 10408 10398 10388 10377 10366 10355 10343 10332 10319 10303 10288 10273 10257 10239 10223 10209 10192 10176 10155 10135 10118 10100 10085 10070 10060 10048 10034 10022 10012 10003 9995 9987 9979 9972 9965 9959 9953 9947 9944
10423 10415 10407 10398 10388 10377 10366 10355 10343 10332 10320 10307 10295 10280 10261 10244 10228 10213 10198 10179 10163 10151 10132 10113 10096 10076 10060 10050 10040 10028 10015 10005 9995 9987 9981 9972 9964 9958 9951 9946 9941 9937 9931
10404 10396 10387 10377 10367 10355 10344 10332 10319 10309 10298 10285 10272 10259 10243 10222 10201 10180 10165 10150 10134 10118 10105 10089 10072 10054 10041 10029 10018 10008 9997 9988 9979 9971 9965 9957 9950 9943 9938 9933 9929 9925 9922
10384 10375 10365 10355 10345 10334 10322 10311 10297 10284 10271 10259 10246 10233 10221 10204 10182 10163 10143 10122 10104 10089 10076 10066 10049 10033 10020 10008 9997 9989 9981 9972 9963 9955 9949 9943 9936 9930 9924 9919 9917 9914 9911
10363 10354 10344 10334 10323 10311 10298 10285 10272 10258 10245 10234 10221 10206 10194 10181 10159 10140 10122 10106 10087 10066 10050 10036 10024 10014 10003 9990 9979 9971 9963 9955 9947 9939 9932 9927 9922 9916 9911 9907 9904 9901 9899
10341 10332 10322 10311 10300 10288 10275 10259 10244 10231 10217 10201 10186 10173 10155 10137 10125 10108 10092 10076 10058 10040 10027 10014 10002 9991 9983 9972 9962 9954 9945 9938 9931 9924 9919 9914 9908 9903 9899 9895 9892 9889 9887
10317 10307 10297 10286 10274 10263 10250 10239 10225 10206 10188 10171 10153 10139 10123 10106 10089 10077 10065 10049 10031 10017 10003 9992 9981 9970 9962 9955 9947 9938 9929 9922 9916 9910 9905 9900 9895 9891 9886 9883 9881 9878 9876
10293 10282 10271 10260 10249 10238 10226 10213 10201 10187 10171 10151 10132 10115 10098 10082 10066 10051 10038 10026 10012 9995 9983 9971 9961 9953 9944 9937 9929 9922 9914 9907 9902 9896 9892 9887 9883 9879 9875 9873 9871 9868 9867
10267 10256 10245 10234 10222 10210 10198 10184 10169 10155 10141 10126 10110 10090 10073 10055 10037 10022 10009 10002 9991 9976 9963 9952 9943 9934 9927 9920 9913 9905 9899 9893 9887 9882 9878 9874 9871 9868 9865 9863 9861 9860 9858
10240 10230 10218 10206 10194 10180 10166 10152 10138 10123 10108 10093 10079 10067 10052 10034 10016 9998 9985 9974 9964 9956 9945 9934 9925 9917 9909 9903 9897 9890 9884 9880 9874 9869 9866 9863 9860 9857 9855 9853 9852 9850 9849
10213 10202 10189 10176 10163 10150 10136 10122 10108 10092 10077 10064 10050 10036 10024 10012 9998 9982 9968 9955 9945 9935 9925 9915 9906 9899 9893 9887 9882 9875 9871 9866 9862 9858 9854 9851 9849 9846 9845 9843 9843 9841 9840
10184 10172 10160 10147 10134 10120 10107 10093 10078 10063 10049 10037 10023 10009 9996 9985 9974 9962 9949 9938 9928 9919 9909 9899 9890 9883 9877 9872 9867 9861 9857 9854 9850 9846 9843 9841 9839 9836 9835 9834 9834 9833 9832
10157 10145 10132 10119 10106 10092 10078 10064 10049 10036 10023 10010 9999 9986 9974 9962 9951 9940 9929 9918 9910 9901 9894 9885 9876 9868 9862 9858 9853 9849 9845 9842 9838 9835 9832 9830 9829 9827 9826 9825 9825 9824 9824
10130 10117 10104 10092 10078 10063 10049 10036 10022 10010 9998 9986 9975 9963 9953 9942 9930 9920 9910 9900 9891 9884 9877 9870 9863 9855 9849 9846 9842 9837 9833 9830 9827 9824 9822 9820 9819 9817 9816 9816 9817 9816 9816
10103 10091 10077 10064 10050 10036 10022 10010 9997 9985 9974 9964 9953 9942 9932 9922 9911 9902 9892 9883 9875 9867 9861 9855 9849 9842 9837 9833 9830 9825 9822 9818 9816 9814 9811 9810 9809 9807 9807 9807 9808 9808 9808
10076 10063 10050 10037 10022 10010 9998 9985 9973 9962 9952 9941 9932 9922 9912 9902 9893 9883 9874 9868 9860 9854 9847 9841 9835 9830 9825 9820 9817 9813 9810 9807 9805 9803 9801 9800 9800 9799 9798 9798 9799 9800 9800